Location: Utrecht
(52.0830°N, 5.1330°E)
Time: 17:11:55
(UTC+02:00)

Daily predictions for brighter satellites

Satellite Brightness Start Highest point End
(mag) Time Altitude Azimuth Time Altitude Azimuth Time Altitude Azimuth
Cosmos 1869 3.4 21:26:32 10° S 21:30:23 57° E 21:34:18 10° NNE
SPOT 5 3.9 21:28:02 10° ESE 21:32:08 28° ENE 21:36:04 10° N
Envisat 3.1 21:28:20 10° SSE 21:33:26 89° ENE 21:38:34 10° NNW
Cosmos 1302 Rocket 4.0 21:29:08 10° SSW 21:34:18 73° ESE 21:39:31 10° NNE
Cosmos 2360 Rocket 3.7 21:32:44 10° SE 21:36:10 17° E 21:39:37 10° ENE
Cosmos 1980 Rocket 2.2 21:30:38 10° SSW 21:36:20 85° ESE 21:42:05 10° NNE
Sich 1 Rocket 4.4 21:38:07 10° N 21:42:14 35° ENE 21:46:22 10° SE
Meteor 1-29 3.1 21:39:57 10° NNE 21:43:24 55° E 21:46:49 10° S
YAOGAN 6 2.8 21:40:00 10° SSE 21:43:34 57° ENE 21:47:08 10° N
Cosmos 1315 Rocket 4.4 21:41:44 10° NNW 21:45:34 37° W 21:49:19 10° SSW
CZ-4B DEB 3.3 21:46:38 10° S 21:49:37 54° W 21:52:38 10° NNW
Cosmos 1634 Rocket 4.1 21:45:04 10° S 21:51:23 89° W 21:57:47 10° N
Cosmos 1655 Rocket 4.1 21:45:19 10° N 21:51:46 87° ENE 21:58:10 10° S
SL-16 R/B 2.5 21:47:07 10° S 21:52:31 47° ESE 21:57:57 10° NE
Cosmos 1933 3.8 21:50:08 10° SSE 21:53:56 41° E 21:57:45 10° NNE
CENTAUR R/B 3.0 21:47:53 10° WSW 21:54:13 71° NW 22:01:32 10° NE
ATLAS 5 CENTAUR R/B 2.4 21:49:47 10° NW 21:55:35 85° NE 22:01:30 12° SE
Cosmos 1908 Rocket 4.0 21:51:59 10° N 21:56:12 45° ENE 22:00:05 12° SSE
H-2A R/B 3.8 21:55:30 10° ESE 21:58:32 19° ENE 22:01:37 10° NNE
Cosmos 1825 3.0 21:58:14 10° NNW 22:01:58 53° W 22:05:40 10° S
MetOp-B 4.3 21:56:51 10° SSE 22:02:07 62° ENE 22:07:25 10° N
SPOT 1/Viking Rocket 4.3 21:57:49 12° SE 22:02:14 39° ENE 22:07:04 10° N
Molniya-1 3.1 22:00:43 10° SSW 22:02:40 48° SE 22:05:32 10° NE
USA 245 4.4 22:00:49 11° SE 22:06:14 52° ENE 22:10:58 10° N
MOS 1-B Rocket 4.2 22:00:50 11° SE 22:06:15 52° ENE 22:11:41 10° N
Cosmos 2278 Rocket 3.8 22:03:08 10° NNW 22:07:41 24° NE 22:12:13 10° E
ERS-1 Rocket 3.0 22:02:51 10° SSE 22:07:53 89° WSW 22:12:57 10° NNW
Cosmos 1782 Rocket 4.2 22:06:02 10° N 22:10:09 39° ENE 22:13:14 16° SE
ARGOS 3.3 22:06:57 13° SE 22:11:43 58° ENE 22:17:01 10° N
Helios 1B rocket 2.9 22:07:53 10° N 22:11:59 64° WNW 22:16:02 10° SSW
Cosmos 1862 3.8 22:08:23 10° NNW 22:12:22 61° W 22:16:21 10° S
Okean 2 Rocket 4.1 22:08:26 10° N 22:12:33 33° ENE 22:15:27 17° SE
Cosmos 2266 Rocket 4.1 22:07:54 10° N 22:14:05 61° ENE 22:19:47 13° SSE
Lacrosse 4 Rocket 3.0 22:11:14 10° NW 22:15:03 31° WSW 22:18:55 10° S
Cosmos 1733 Rocket 3.7 22:12:50 10° NNW 22:17:12 56° W 22:21:34 10° S
Cosmos 1844 Rocket 3.3 22:12:53 10° NNW 22:18:15 44° NE 22:22:24 16° ESE
Cosmos 1777 Rocket 4.4 22:16:44 10° NNW 22:21:54 51° ENE 22:25:38 18° SE
SeaSat 1 2.5 22:17:52 15° SSE 22:21:59 89° SW 22:26:58 10° NNW
CZ-4C R/B 3.5 22:18:05 10° NW 22:24:23 45° NNE 22:31:27 10° E
USA 267 3.5 22:20:28 10° ENE 22:27:01 75° NNW 22:33:32 10° WSW
Cosmos 1992 Rocket 3.9 22:22:00 10° SSW 22:27:13 71° ESE 22:32:28 10° NNE
Cosmos 1633 4.5 22:26:02 10° NNE 22:28:33 17° ENE 22:29:48 15° E
Cosmos 1862 Rocket 3.7 22:24:37 10° SSW 22:29:05 82° W 22:33:37 10° N
Cosmos 1782 4.3 22:31:05 19° ESE 22:31:59 20° E 22:34:58 10° NE
Cosmos 2279 Rocket 4.2 22:26:42 10° SSW 22:32:57 76° WNW 22:39:13 10° N
Terra 2.7 22:34:33 20° ESE 22:37:13 36° ENE 22:41:34 10° N
SL-08 RB Rocket 3.7 22:37:17 20° SSE 22:40:29 78° ENE 22:45:04 10° NNW
Cosmos 2219 Rocket 3.8 22:41:58 15° E 22:42:11 15° E 22:45:12 10° ENE
Okean 1-7 3.6 22:40:35 24° SSE 22:42:47 41° E 22:46:57 10° NNE
Meteor 1-14 Rocket 4.2 22:37:50 10° NNW 22:43:30 88° W 22:48:01 17° S
Cosmos 2151 Rocket 4.5 22:41:53 10° N 22:45:57 34° ENE 22:47:49 24° ESE
Cosmos 1867 3.9 22:41:08 10° NW 22:46:30 58° SW 22:50:04 21° SSE
ATLAS 3B R/B 4.2 22:40:34 10° NW 22:46:55 33° N 22:52:59 10° ENE
Cosmos 1703 Rocket 3.5 22:45:42 18° S 22:48:59 67° E 22:53:24 10° NNE
H-2A R/B 1.9 22:50:57 24° SSE 22:54:04 79° ENE 22:59:02 10° NNW
Cosmos 2221 Rocket 3.6 22:51:49 24° SSE 22:54:18 58° E 22:58:42 10° NNE
Abrixas rocket 2.6 22:54:38 10° WSW 22:57:46 41° S 22:57:50 41° S
Cosmos 2263 Rocket 3.6 22:53:37 10° NW 22:58:29 32° WSW 23:03:16 10° SSW
Meteor 1-25 Rocket 4.2 22:54:33 10° NNW 23:00:13 87° WSW 23:03:50 23° S
Cosmos 968 Rocket 4.3 22:58:09 10° NW 23:03:06 47° WSW 23:06:43 18° S
CARTOSAT-1 3.7 23:04:03 33° SE 23:05:48 58° ENE 23:10:05 10° N
COSMOS 2428 3.3 23:04:24 27° SSE 23:06:26 36° ESE 23:11:36 10° NE
ASTEX 1 3.8 23:05:28 30° SE 23:07:38 50° ENE 23:12:27 10° N
Cosmos 2322 Rocket 2.9 23:03:25 10° SW 23:08:57 57° NW 23:14:32 10° NNE
Meteor 2-10 Rocket 4.1 23:04:12 10° SSW 23:10:00 70° WNW 23:15:48 10° N
SPOT 5 3.6 23:06:27 16° S 23:10:03 47° W 23:14:33 10° NNW
Cosmos 2084 3.7 23:07:49 10° NW 23:11:33 51° NE 23:13:02 31° E
Okean 1 Rocket 4.4 23:09:15 10° N 23:13:04 27° ENE 23:14:16 24° E
Cosmos 2360 Rocket 2.1 23:13:39 10° SSW 23:19:19 84° ESE 23:25:02 10° NNE
Cosmos 1844 3.7 23:14:16 10° NNW 23:20:01 84° ENE 23:22:39 33° SE
Meteor 1-20 Rocket 4.4 23:14:53 10° NNW 23:20:24 70° W 23:23:44 25° S
CZ-4B R/B 4.2 23:16:31 10° NNE 23:20:44 31° E 23:21:18 30° ESE
Cosmos 1980 Rocket 4.5 23:16:17 10° W 23:21:03 27° NW 23:25:51 10° NNE
Cosmos 1536 3.9 23:20:43 10° N 23:24:22 30° ENE 23:25:01 29° E
Cosmos 2322 3.6 23:20:56 10° SSW 23:26:40 82° ESE 23:32:24 10° NNE
H-2A R/B 2.2 23:32:37 38° S 23:34:06 66° WSW 23:38:27 10° NNW
Meteor 2-6 Rocket 4.3 23:33:27 32° S 23:36:15 67° E 23:42:11 10° NNE
SL-16 R/B 3.5 23:31:24 10° WSW 23:36:45 41° NW 23:42:08 10° NNE
CZ-4C R/B 3.4 23:37:25 50° E 23:37:53 54° ENE 23:41:30 10° N
CRYOSAT 2 4.4 23:37:00 43° SSE 23:38:31 67° E 23:43:23 10° N
Cosmos 1937 Rocket 4.3 23:34:11 10° NNW 23:39:10 40° NE 23:41:14 28° ESE
ATLAS 5 CENTAUR R/B 3.8 23:35:01 10° WNW 23:39:55 27° WSW 23:43:04 18° SSW
CENTAUR R/B 4.3 23:39:54 10° W 23:46:06 37° NNW 23:53:05 10° NE
Cosmos 2333 Rocket 2.8 23:46:21 35° ESE 23:46:55 36° ESE 23:52:08 10° NE
Cosmos 2333 4.2 23:46:12 35° S 23:48:33 63° ESE 23:54:16 10° NE
Cosmos 1745 Rocket 4.0 23:42:29 10° N 23:48:50 79° E 23:51:28 38° SSE
NOSS 3-1 (C) 3.9 23:49:33 36° SE 23:50:05 37° ESE 23:56:02 10° NE
Okean 2 Rocket 4.5 23:46:33 10° NNW 23:50:39 34° W 23:52:50 22° SW
Timation 1 Rocket 4.4 23:45:21 10° NNW 23:51:22 69° NE 23:53:46 37° SE
Cosmos 2278 Rocket 2.1 23:46:55 10° NNW 23:52:38 84° ENE 23:54:35 43° SE
Cosmos 1417 Rocket 4.4 23:50:03 33° S 23:53:08 83° E 23:59:32 10° NNE
IGS 5A 3.9 23:52:53 42° SSW 23:53:53 53° W 23:57:59 10° NNW
Cosmos 1606 2.7 23:53:48 58° SW 23:54:24 73° W 23:58:13 10° N
Cosmos 2237 Rocket 3.1 23:54:25 31° ESE 23:54:31 31° ESE 23:59:27 10° NE
